Location: Cella
(44.7333°N, 10.5667°E)
Time: 08:17:41
(UTC+00:00)

Cosmos 2084 Rocket - Pass Details

Date: 03 March 2021
Orbit: 527 x 653 km, 62.8° (Epoch: 18 April)

Event Time Altitude Azimuth Distance (km) Brightness Sun altitude
Rises 18:24:21 0° 320° (NW) 2,811 7.7 -14.3°
Reaches altitude 10° 18:26:34 10° 318° (NW) 1,929 6.8 -14.7°
Maximum altitude 18:30:56 75° 234° (SW) 635 3.7 -15.5°
Enters shadow 18:34:52 13° 150° (SSE) 1,770 5.6 -16.2°
